Regional Weather Roundup
Issued by NWS

Home | Current Version | Previous Version | Text Only | Print | Product List | Glossary On
Versions: 1 2 3 4 5 6 7 8 9 10 11 12 13 14 15 16 17 18 19 20 21 22 23 24 25 26 27 28 29 30 31 32 33 34 35 36 37 38 39 40 41 42 43 44 45 46 47 48 49 50
000
ASUS46 KSTO 241815
RWRCA

NORTHERN AND CENTRAL CA REGIONAL WEATHER ROUNDUP
NATIONAL WEATHER SERVICE SACRAMENTO CA
1100 AM PDT SUN SEP 24 2017

NOTE: FAIR INDICATES FEW OR NO CLOUDS BELOW 12,000 FEET WITH NO
SIGNIFICANT WEATHER AND/OR OBSTRUCTIONS TO VISIBILITY.

CAZ001-003-241900-
NORTHWEST AREA

CITY           SKY/WX    TMP DP  RH WIND       PRES   REMARKS
CRESCENT CITY  SUNNY     60  53  77 NW8       30.06S
UKIAH          SUNNY     67  41  38 CALM      30.00F
$$

CAZ006-505>513-241900-
BAY AREA

CITY           SKY/WX    TMP DP  RH WIND       PRES   REMARKS
SANTA ROSA     MOSUNNY   79  32  18 NW6       29.96S
SAN RAFAEL     N/A       65  MM  MM MISG
NAPA           SUNNY     74  45  35 SW7       29.96F
CONCORD        SUNNY     75  35  23 CALM      29.97S
OAKLAND CITY   N/A      MM  MM  MM MISG
OAKLAND        MOSUNNY   65  55  70 SW6       29.98S
SAN FRAN CITY  N/A       71  MM  33 MISG
SAN FRAN ARPT  SUNNY     67  54  63 NE3       29.97S
LIVERMORE      SUNNY     72  38  29 SW3       29.96F
HAYWARD        SUNNY     70  45  40 SW5       29.97S
REDWOOD CITY   N/A       73  MM  31 MISG
MOFFETT ARPT   SUNNY     73  40  30 NW6       29.97F
SAN JOSE ARPT  MOSUNNY   73  40  30 NW6       29.97S
$$
CAZ034-037-514>518-241900-
CENTRAL COAST

CITY           SKY/WX    TMP DP  RH WIND       PRES   REMARKS
WATSONVILLE    SUNNY     71  41  33 CALM      29.96F
SALINAS        SUNNY     69  41  36 SE3       29.95F
MONTEREY       SUNNY     72  38  29 W5        29.96S
SAN LUIS OBISP SUNNY     80  32  17 CALM      29.92S
SANTA MARIA    SUNNY     72  37  28 CALM      29.93R
$$
CAZ015-016-241900-
NORTHERN SACRAMENTO VALLEY

CITY           SKY/WX    TMP DP  RH WIND       PRES   REMARKS
REDDING        SUNNY     75  29  18 N20       30.01F
RED BLUFF      SUNNY     76  31  19 N17       30.01F
OROVILLE       SUNNY     79  29  16 N15G23    29.97R
$$
CAZ016>018-241900-
SOUTHERN SACRAMENTO VALLEY

CITY           SKY/WX    TMP DP  RH WIND       PRES   REMARKS
AUBURN         SUNNY     72 -33   1 CALM      29.98S
BEALE AFB      SUNNY     73  37  27 W7        29.94S
LINCOLN        FAIR      72  30  21 SW5       29.95S
MARYSVILLE     SUNNY     74  37  26 NW10      29.96F
SAC INTL ARPT  MOSUNNY   70  37  29 N8        29.96S
MATHER AIRPORT SUNNY     66  36  32 CALM      29.95S
DOWNTOWN SAC   N/A       69  MM  MM MISG
SAC EXEC ARPT  SUNNY     69  36  29 NW5       29.96S
VACAVILLE      SUNNY     79  33  19 N12G23    29.97S
TRAVIS AFB     SUNNY     76  34  22 NE16      29.94S
$$
CAZ019>021-241900-
SAN JOAQUIN VALLEY

CITY           SKY/WX    TMP DP  RH WIND       PRES   REMARKS
STOCKTON       SUNNY     71  38  29 SW6       29.96S
MODESTO        SUNNY     71  38  29 CALM      29.95F
MERCED         SUNNY     68  38  33 NW3       29.95F
LEMOORE        SUNNY     76  34  21 N8        29.97F
FRESNO         MOSUNNY   70  39  32 VRB5      29.97S
HANFORD        SUNNY     70  40  33 CALM      29.97F
PORTERVILLE      N/A     73  39  29 W3        29.98R
BAKERSFIELD    SUNNY     74  36  25 CALM      29.95S
$$
CAZ011-012-071-241900-
NORTHERN MOUNTAINS

CITY           SKY/WX    TMP DP  RH WIND       PRES   REMARKS
YREKA          SUNNY     60  35  39 NE6       30.14F
MOUNT SHASTA   SUNNY     61  36  39 VRB3      30.13S
ALTURAS        SUNNY     52  32  46 CALM      30.15F
$$
CAZ011-012-071-241900-
SIERRA NEVADA MTNS

CITY           SKY/WX    TMP DP  RH WIND       PRES   REMARKS
BLUE CANYON    SUNNY     55  24  30 VRB6      30.09S
TRUCKEE        SUNNY     48  27  43 CALM      30.13
TAHOE VLY ARPT SUNNY     49  20  31 NE9G16    30.11S
MAMMOTH LAKES  FAIR      48  16  27 NW5       30.14S
$$



USA.gov is the U.S. government's official web portal to all federal, state and local government web resources and services.